TimeCDT,TemperatureF,Dew PointF,Humidity,Sea Level PressureIn,VisibilityMPH,Wind Direction,Wind SpeedMPH,Gust SpeedMPH,PrecipitationIn,Events,Conditions,WindDirDegrees,DateUTC
12:53 AM,73.9,70.0,87,30.06,7.0,South,6.9,-,N/A,,Clear,190,2013-09-11 05:53:00
1:53 AM,73.9,70.0,87,30.06,7.0,South,6.9,-,N/A,,Clear,190,2013-09-11 06:53:00
2:53 AM,72.0,70.0,93,30.06,6.0,SSW,5.8,-,N/A,,Clear,200,2013-09-11 07:53:00
3:53 AM,71.1,69.1,93,30.07,6.0,SSW,5.8,-,N/A,,Clear,200,2013-09-11 08:53:00
4:53 AM,71.1,69.1,93,30.08,5.0,SSW,5.8,-,N/A,,Clear,200,2013-09-11 09:53:00
5:53 AM,70.0,69.1,97,30.09,5.0,South,5.8,-,N/A,,Clear,190,2013-09-11 10:53:00
6:53 AM,70.0,68.0,93,30.11,3.0,SSW,5.8,-,N/A,,Clear,210,2013-09-11 11:53:00
7:53 AM,73.0,69.1,87,30.12,6.0,SSW,5.8,-,N/A,,Clear,210,2013-09-11 12:53:00
8:53 AM,79.0,69.1,72,30.12,9.0,SW,5.8,-,N/A,,Clear,220,2013-09-11 13:53:00
9:53 AM,84.0,66.9,56,30.11,10.0,West,9.2,-,N/A,,Clear,260,2013-09-11 14:53:00
10:53 AM,89.1,64.9,45,30.10,10.0,WSW,8.1,-,N/A,,Clear,250,2013-09-11 15:53:00
11:53 AM,91.9,64.0,39,30.09,10.0,West,11.5,18.4,N/A,,Clear,260,2013-09-11 16:53:00
12:53 PM,93.9,63.0,36,30.07,10.0,West,13.8,21.9,N/A,,Clear,260,2013-09-11 17:53:00
1:53 PM,95.0,61.0,32,30.06,10.0,West,10.4,20.7,N/A,,Clear,280,2013-09-11 18:53:00
2:53 PM,93.9,61.0,33,30.04,10.0,West,12.7,19.6,N/A,,Partly Cloudy,270,2013-09-11 19:53:00
3:53 PM,93.9,57.9,30,30.03,10.0,WSW,13.8,23.0,N/A,,Clear,240,2013-09-11 20:53:00
4:53 PM,93.0,63.0,37,30.02,10.0,SW,9.2,18.4,N/A,,Clear,230,2013-09-11 21:53:00
5:53 PM,90.0,63.0,40,30.02,10.0,WSW,8.1,-,N/A,,Clear,240,2013-09-11 22:53:00
6:53 PM,82.9,64.9,54,30.02,10.0,SW,4.6,-,N/A,,Scattered Clouds,230,2013-09-11 23:53:00
7:53 PM,78.1,66.0,66,30.03,10.0,SSW,4.6,-,N/A,,Scattered Clouds,210,2013-09-12 00:53:00
8:53 PM,75.0,66.9,76,30.04,9.0,SSW,3.5,-,N/A,,Scattered Clouds,210,2013-09-12 01:53:00
9:53 PM,73.9,66.0,76,30.03,10.0,SSW,4.6,-,N/A,,Scattered Clouds,210,2013-09-12 02:53:00
10:53 PM,77.0,66.9,71,30.01,10.0,Calm,Calm,-,N/A,,Mostly Cloudy,0,2013-09-12 03:53:00
11:53 PM,75.9,66.9,74,30.01,10.0,West,3.5,-,N/A,,Overcast,280,2013-09-12 04:53:00